GW6643 Weather Reports


time (UTC)temp
C
wind
direction
speed
KPH
gust
KPH
rain 1hr
cm
rain 24hr
cm
rain mn
cm
humidity
%
barometer
mb
20260504001705 6 87 0.0 0.0 0.00 1.50 0.00 93 1014.1
20260504001205 6 87 0.0 1.6 0.00 1.50 0.00 93 1014.3
20260504000705 6 87 0.0 3.2 0.00 1.50 0.00 93 1014.3
20260504000205 6 87 0.0 3.2 0.00 1.50 1.50 93 1014.3
20260503235704 6 87 0.0 3.2 0.00 1.50 1.50 93 1014.4
20260503235205 6 87 1.6 3.2 0.00 1.50 1.50 93 1014.4
20260503234705 6 87 0.0 3.2 0.00 1.50 1.50 93 1014.6
20260503234204 6 87 1.6 3.2 0.00 1.50 1.50 93 1014.6
20260503233705 6 87 0.0 1.6 0.00 1.50 1.50 93 1014.4
20260503233205 6 87 0.0 3.2 0.00 1.50 1.50 92 1014.4
20260503232704 6 87 0.0 3.2 0.00 1.50 1.50 92 1014.7
20260503231704 6 87 0.0 1.6 0.00 1.50 1.50 92 1014.8
20260503231205 6 87 0.0 1.6 0.00 1.50 1.50 92 1014.8
20260503230204 6 87 0.0 3.2 0.00 1.50 1.50 92 1014.8
20260503225704 6 87 0.0 3.2 0.00 1.50 1.50 92 1014.6
20260503225205 6 87 3.2 3.2 0.00 1.50 1.50 92 1014.7
20260503224705 6 87 0.0 3.2 0.00 1.50 1.50 92 1014.7
20260503224205 7 87 1.6 3.2 0.00 1.50 1.50 92 1014.7
20260503223705 7 87 1.6 3.2 0.00 1.50 1.50 91 1014.7
20260503223204 7 87 0.0 0.0 0.03 1.50 1.50 91 1014.8
20260503215705 8 86 3.2 8.0 0.30 1.50 1.50 91 1014.9
20260503215205 8 92 6.4 6.4 0.30 1.50 1.50 91 1014.9
20260503214705 8 165 0.0 6.4 0.30 1.50 1.50 91 1014.9
20260503213705 8 165 3.2 8.0 0.30 1.50 1.50 91 1015.0
20260503213205 8 162 4.8 8.0 0.28 1.47 1.47 90 1015.0
20260503212705 8 144 1.6 20.9 0.28 1.50 1.47 90 1015.0
20260503212205 8 35 6.4 25.7 0.25 1.47 1.45 90 1014.9
20260503211705 8 285 0.0 25.7 0.15 1.37 1.35 90 1015.5
20260503211205 8 228 11.3 9.7 0.03 1.37 1.22 91 1015.7
20260503210704 8 195 4.8 0.0 0.00 1.83 1.19 91 1015.1
20260503210205 8 261 0.0 0.0 0.00 2.08 1.19 91 1014.7
20260503205704 8 261 0.0 0.0 0.00 2.11 1.19 91 1014.4
20260503204704 9 261 0.0 0.0 0.00 2.16 1.19 90 1014.3
20260503204204 9 303 0.0 0.0 0.00 2.18 1.19 90 1014.3
20260503203705 9 302 0.0 0.0 0.00 2.21 1.19 90 1014.3
20260503203205 9 302 0.0 0.0 0.00 2.26 1.19 89 1014.3
20260503202705 9 302 0.0 1.6 0.00 2.29 1.19 89 1014.2
20260503202204 10 302 0.0 3.2 0.00 2.34 1.19 89 1014.2
20260503201704 10 302 0.0 4.8 0.00 2.36 1.19 89 1014.2
20260503200705 10 302 1.6 6.4 0.00 2.44 1.19 90 1014.0
20260503200222 10 306 3.2 6.4 0.00 2.49 1.19 90 1014.0
20260503195705 10 238 3.2 0.0 0.00 2.49 1.19 89 1014.0
20260503195205 10 245 0.0 0.0 0.00 2.49 1.19 89 1013.9
20260503194705 10 251 0.0 6.4 0.00 2.49 1.19 89 1013.9
20260503194204 10 251 0.0 6.4 0.00 2.49 1.19 88 1013.8
20260503193705 10 251 0.0 6.4 0.00 2.49 1.19 88 1013.6
20260503193205 10 243 3.2 4.8 0.00 2.49 1.19 88 1013.6
20260503192704 10 243 3.2 4.8 0.00 2.49 1.19 87 1013.5
20260503192205 11 244 3.2 8.0 0.00 2.49 1.19 86 1013.5
20260503191705 11 244 0.0 8.0 0.00 2.49 1.19 86 1013.5
20260503191205 11 244 3.2 8.0 0.00 2.51 1.19 85 1013.4
20260503190705 11 245 3.2 8.0 0.00 2.51 1.19 85 1013.4
20260503190205 11 254 3.2 8.0 0.00 2.51 1.19 85 1013.4
20260503185705 11 295 4.8 6.4 0.00 2.51 1.19 84 1013.2
20260503185204 11 247 0.0 9.7 0.00 2.51 1.19 84 1013.1
20260503183705 11 275 0.0 8.0 0.00 2.51 1.19 84 1013.0
20260503182204 12 303 1.6 11.3 0.00 2.69 1.19 84 1013.0
20260503181704 12 300 1.6 11.3 0.00 2.87 1.19 84 1013.0
20260503181204 12 300 3.2 11.3 0.00 2.87 1.19 84 1013.0
20260503180705 12 282 6.4 9.7 0.00 2.87 1.19 85 1012.8
20260503180204 12 302 3.2 9.7 0.00 2.87 1.19 86 1012.7
20260503175705 12 281 3.2 9.7 0.05 2.87 1.19 87 1012.6
20260503174705 12 316 4.8 4.8 0.05 2.87 1.19 88 1012.8
20260503174205 12 262 0.0 8.0 0.05 2.87 1.19 88 1012.4
20260503173705 12 261 0.0 17.7 0.05 2.87 1.19 88 1012.8
20260503173205 12 262 3.2 17.7 0.05 2.87 1.19 88 1012.7
20260503172705 12 221 3.2 17.7 0.05 2.87 1.19 88 1012.8
20260503172204 12 251 8.0 9.7 0.05 2.87 1.19 88 1012.7
20260503171705 12 209 3.2 9.7 0.05 2.87 1.19 87 1012.7
20260503171205 12 269 4.8 9.7 0.05 2.87 1.19 86 1012.7
20260503170705 12 295 6.4 14.5 0.05 2.87 1.19 85 1012.8
20260503160205 11 97 4.8 9.7 0.00 2.82 1.14 88 1012.8
20260503150705 10 189 6.4 16.1 0.28 2.82 1.14 87 1013.4
20260503140205 12 240 4.8 20.9 0.03 2.54 0.86 79 1014.0
20260503131205 12 293 4.8 17.7 0.00 2.51 0.84 82 1013.9
20260503130705 13 283 3.2 17.7 0.00 2.51 0.84 81 1013.9
20260503130205 13 271 3.2 17.7 0.00 2.51 0.84 81 1013.9
20260503120205 11 61 6.4 9.7 0.05 2.51 0.84 88 1014.9
20260503110704 10 3 1.6 11.3 0.71 2.49 0.81 89 1015.8
20260503110221 9 3 3.2 14.5 0.71 2.46 0.79 89 1015.7
20260503100204 10 97 3.2 14.5 0.03 1.70 0.03 87 1015.5
20260503090205 12 135 4.8 16.1 0.00 1.68 0.00 82 1015.4
20260503081205 11 96 1.6 19.3 0.00 1.68 0.00 88 1015.4
20260503080704 11 86 4.8 14.5 0.00 1.68 0.00 87 1015.4
20260503080205 11 142 6.4 14.5 0.00 1.68 0.00 88 1015.5
20260503072704 10 107 6.4 17.7 0.00 1.68 0.00 90 1015.5
20260503071704 10 96 9.7 14.5 0.00 1.68 0.00 90 1015.5
20260503071205 10 87 6.4 9.7 0.00 1.68 0.00 91 1015.5
20260503060205 8 63 3.2 9.7 0.00 1.68 0.00 92 1015.5
20260503054705 8 142 3.2 6.4 0.00 1.68 0.00 92 1015.6
20260503054205 8 130 3.2 6.4 0.00 1.68 0.00 92 1015.5
20260503053205 8 114 3.2 8.0 0.00 1.68 0.00 92 1015.5
20260503052704 8 114 3.2 8.0 0.00 1.68 0.00 92 1015.5
20260503052205 8 118 3.2 8.0 0.00 1.68 0.00 92 1015.5
20260503051705 8 110 4.8 6.4 0.00 1.68 0.00 92 1015.6
20260503050704 8 116 1.6 14.5 0.00 1.68 0.00 92 1015.4
20260503050204 8 157 3.2 14.5 0.00 1.68 0.00 92 1015.4
20260503045705 8 138 3.2 11.3 0.00 1.68 0.00 92 1015.4
20260503045205 8 162 1.6 11.3 0.00 1.68 0.00 92 1015.4
20260503044704 8 109 3.2 11.3 0.00 1.68 0.00 92 1015.5
20260503044204 8 145 3.2 17.7 0.00 1.68 0.00 92 1015.2
20260503043704 8 120 4.8 17.7 0.00 1.68 0.00 92 1015.2
20260503043205 8 144 3.2 17.7 0.00 1.68 0.00 92 1015.2
20260503042705 8 117 6.4 14.5 0.00 1.68 0.00 92 1015.4
20260503042205 8 121 3.2 14.5 0.00 1.68 0.00 92 1015.4
20260503041720 8 134 4.8 14.5 0.00 1.68 0.00 92 1015.5
20260503041205 8 134 6.4 8.0 0.00 1.68 0.00 93 1015.5
20260503040704 8 141 3.2 8.0 0.00 1.68 0.00 92 1015.4
20260503040205 8 125 4.8 11.3 0.00 1.68 0.00 93 1015.5
20260503035704 8 127 3.2 11.3 0.00 1.68 0.00 93 1015.7
20260503035204 8 186 4.8 11.3 0.00 1.68 0.00 93 1015.7
20260503034705 8 89 3.2 8.0 0.00 1.68 0.00 93 1015.7
20260503034205 8 85 3.2 9.7 0.00 1.68 0.00 93 1015.8
20260503033705 8 85 3.2 9.7 0.00 1.68 0.00 93 1015.8
20260503033205 8 148 3.2 9.7 0.00 1.68 0.00 93 1016.2
20260503032705 8 103 4.8 8.0 0.00 1.68 0.00 93 1016.2
20260503032205 8 75 4.8 8.0 0.00 1.68 0.00 93 1016.2
20260503031205 9 113 4.8 11.3 0.00 1.68 0.00 93 1016.0
20260503030705 9 142 4.8 11.3 0.00 1.68 0.00 93 1016.0
20260503030205 8 100 4.8 11.3 0.00 1.68 0.00 93 1016.2
20260503025204 8 144 4.8 6.4 0.00 1.68 0.00 93 1016.0
20260503024704 8 137 3.2 6.4 0.00 1.68 0.00 93 1015.9
20260503024205 8 138 1.6 6.4 0.00 1.68 0.00 93 1015.9
20260503023704 8 140 4.8 6.4 0.00 1.68 0.00 93 1016.0
20260503023204 8 140 1.6 6.4 0.00 1.68 0.00 93 1016.0
20260503022204 8 121 1.6 9.7 0.00 1.68 0.00 93 1016.0
20260503021705 8 76 0.0 9.7 0.00 1.68 0.00 93 1016.0
20260503021205 8 123 3.2 6.4 0.00 1.68 0.00 93 1016.2
20260503020204 9 162 0.0 9.7 0.00 1.68 0.00 93 1016.2
20260503014705 9 145 0.0 6.4 0.00 1.68 0.00 94 1016.3
20260503013704 9 102 3.2 6.4 0.00 1.68 0.00 94 1016.3
20260503013205 9 118 1.6 6.4 0.00 1.68 0.00 94 1016.3
20260503012704 9 83 3.2 8.0 0.00 1.68 0.00 94 1016.5
20260503012204 9 118 3.2 8.0 0.00 1.68 0.00 94 1016.5
20260503011705 9 162 3.2 9.7 0.00 1.68 0.00 94 1016.5
20260503011204 9 145 4.8 9.7 0.00 1.68 0.00 94 1016.5
20260503010704 9 159 6.4 6.4 0.00 1.68 0.00 94 1016.6
20260503010204 9 93 1.6 9.7 0.00 1.68 0.00 93 1016.6
20260503005705 9 93 1.6 9.7 0.00 1.68 0.00 94 1016.8
20260503005204 9 162 1.6 9.7 0.00 1.68 0.00 94 1016.8
20260503004704 9 155 3.2 9.7 0.00 1.68 0.00 94 1016.8
20260503004205 9 125 1.6 11.3 0.00 1.68 0.00 94 1016.8
20260503003705 9 125 6.4 11.3 0.00 1.68 0.00 94 1016.9
20260503003205 9 114 3.2 11.3 0.00 1.68 0.00 94 1016.9
20260503002704 9 161 4.8 11.3 0.00 1.68 0.00 94 1017.1